Regional Weather Roundup
Issued by NWS

Home | Current Version | Previous Version | Graphics & Text | Print | Product List | Glossary On
Versions: 1 2 3 4 5 6 7 8 9 10 11 12 13 14 15 16 17 18 19 20 21 22 23 24 25 26 27 28 29 30 31 32 33 34 35 36 37 38 39 40 41 42 43 44 45 46 47 48 49 50
000
ASUS43 KLSX 051457
RWRMO

WEATHER SUMMARY FOR MISSOURI
NATIONAL WEATHER SERVICE SPRINGFIELD MO
1000 AM CDT SAT SEP 05 2015

NOTE: "FAIR" INDICATES FEW OR NO CLOUDS BELOW 12,000 FEET WITH NO
       SIGNIFICANT WEATHER AND/OR OBSTRUCTIONS TO VISIBILITY.
       CURRENT SKY AND/OR WEATHER CONDITIONS ARE NOT AVAILABLE FOR
       CHILLICOTHE AND FARMINGTON.

MOZ001>031-035>038-043-044-053-054-051600-
...NORTHERN AND WESTERN MISSOURI...

CITY           SKY/WX    TMP DP  RH WIND       PRES   REMARKS
KANSAS CTY INT MOSUNNY   83  70  64 S10       30.03S
LEE`S SUMMIT   SUNNY     81  69  67 S8        30.05S
ST JOSEPH      SUNNY     82  71  69 S9        30.00F
CHILLICOTHE      N/A     82  71  69 S9        30.05S

$$
MOZ066>068-077>081-088>096-101>105-051600-
...SOUTHWEST MISSOURI...

CITY           SKY/WX    TMP DP  RH WIND       PRES   REMARKS
SPRINGFIELD    SUNNY     83  69  62 S14       30.10R
JOPLIN         SUNNY     84  71  65 S12       30.07S

$$
MOZ032>034-039>042-045>050-055>058-069>072-051600-
...CENTRAL MISSOURI...

CITY           SKY/WX    TMP DP  RH WIND       PRES   REMARKS
COLUMBIA       NOT AVBL
JEFFERSON CITY SUNNY     82  70  66 S7        30.08S
ROLLA          SUNNY     84  69  60 S9        30.10S
SEDALIA        SUNNY     85  70  60 S13       30.09R

$$
MOZ051-052-059>065-051600-
...EAST CENTRAL MISSOURI...

CITY           SKY/WX    TMP DP  RH WIND       PRES   REMARKS
ST LOUIS INTL  MOSUNNY   88  68  51 VRB5      30.11S HX  91

$$
MOZ072>076-082>087-097>100-106>115-051600-
...SOUTH CENTRAL AND SOUTHEAST MISSOURI...

CITY           SKY/WX    TMP DP  RH WIND       PRES   REMARKS
CAPE GIRARDEAU SUNNY     83  73  72 NE3       30.10R
POPLAR BLUFF   SUNNY     84  72  67 CALM      30.08S
WEST PLAINS    SUNNY     82  69  64 SE6       30.13S

$$



USA.gov is the U.S. government's official web portal to all federal, state and local government web resources and services.